TimePST,TemperatureF,Dew PointF,Humidity,Sea Level PressureIn,VisibilityMPH,Wind Direction,Wind SpeedMPH,Gust SpeedMPH,PrecipitationIn,Events,Conditions,WindDirDegrees,DateUTC
12:54 AM,50.0,46.9,89,29.96,10.0,NNW,6.9,-,N/A,,Clear,340,2011-11-14 08:54:00
1:54 AM,50.0,46.0,86,29.96,10.0,NNW,6.9,-,N/A,,Clear,340,2011-11-14 09:54:00
2:54 AM,46.9,45.0,93,29.96,10.0,Calm,Calm,-,N/A,,Clear,0,2011-11-14 10:54:00
3:54 AM,50.0,46.0,86,29.96,10.0,North,4.6,-,N/A,,Clear,360,2011-11-14 11:54:00
4:28 AM,44.6,42.8,93,29.96,10.0,Calm,Calm,-,N/A,,Scattered Clouds,0,2011-11-14 12:28:00
4:45 AM,46.4,44.6,93,29.96,10.0,Calm,Calm,-,N/A,,Mostly Cloudy,0,2011-11-14 12:45:00
4:54 AM,48.9,46.0,90,29.97,10.0,ENE,3.5,-,N/A,,Overcast,70,2011-11-14 12:54:00
5:54 AM,50.0,46.9,89,29.98,7.0,Calm,Calm,-,N/A,,Mostly Cloudy,0,2011-11-14 13:54:00
6:54 AM,50.0,48.0,93,29.98,7.0,NE,3.5,-,N/A,,Mostly Cloudy,40,2011-11-14 14:54:00
7:54 AM,53.1,50.0,89,29.99,7.0,Variable,4.6,18.4,N/A,,Overcast,0,2011-11-14 15:54:00
8:33 AM,55.4,51.8,88,29.99,7.0,NE,3.5,-,N/A,,Mostly Cloudy,40,2011-11-14 16:33:00
8:54 AM,55.9,52.0,87,30.00,7.0,NE,3.5,-,N/A,,Mostly Cloudy,40,2011-11-14 16:54:00
9:54 AM,59.0,53.1,81,30.00,7.0,WSW,4.6,-,N/A,,Scattered Clouds,240,2011-11-14 17:54:00
10:54 AM,61.0,54.0,78,29.98,7.0,South,8.1,-,N/A,,Scattered Clouds,190,2011-11-14 18:54:00
11:54 AM,63.0,54.0,72,29.96,7.0,SSW,12.7,-,N/A,,Scattered Clouds,210,2011-11-14 19:54:00
12:46 PM,60.8,53.6,77,29.94,10.0,WSW,12.7,-,N/A,,Mostly Cloudy,250,2011-11-14 20:46:00
12:54 PM,59.0,53.1,81,29.94,7.0,WSW,11.5,-,N/A,,Mostly Cloudy,240,2011-11-14 20:54:00
1:26 PM,60.8,53.6,77,29.93,10.0,SW,10.4,-,N/A,,Scattered Clouds,230,2011-11-14 21:26:00
1:34 PM,59.0,53.6,82,29.93,10.0,WSW,9.2,-,N/A,,Mostly Cloudy,250,2011-11-14 21:34:00
1:54 PM,59.0,53.1,81,29.93,7.0,WSW,9.2,-,N/A,,Mostly Cloudy,250,2011-11-14 21:54:00
2:54 PM,60.1,53.1,78,29.92,7.0,West,10.4,-,N/A,,Mostly Cloudy,260,2011-11-14 22:54:00
3:30 PM,59.0,53.6,82,29.91,7.0,West,13.8,-,N/A,,Partly Cloudy,260,2011-11-14 23:30:00
3:54 PM,57.9,53.1,84,29.92,7.0,West,10.4,-,N/A,,Partly Cloudy,260,2011-11-14 23:54:00
4:54 PM,57.0,52.0,83,29.93,7.0,West,8.1,-,N/A,,Scattered Clouds,270,2011-11-15 00:54:00
5:54 PM,55.9,52.0,87,29.94,6.0,Calm,Calm,-,N/A,,Partly Cloudy,0,2011-11-15 01:54:00
6:54 PM,53.1,51.1,93,29.96,6.0,NE,3.5,-,N/A,,Clear,50,2011-11-15 02:54:00
7:54 PM,51.1,50.0,96,29.97,6.0,East,3.5,-,N/A,,Clear,80,2011-11-15 03:54:00
8:54 PM,51.1,50.0,96,30.00,6.0,Calm,Calm,-,N/A,,Clear,0,2011-11-15 04:54:00
9:12 PM,51.8,50.0,94,30.00,6.0,Calm,Calm,-,N/A,,Mostly Cloudy,0,2011-11-15 05:12:00
9:43 PM,51.8,50.0,94,30.00,6.0,NNE,3.5,-,N/A,,Scattered Clouds,30,2011-11-15 05:43:00
9:54 PM,52.0,50.0,93,30.01,6.0,North,4.6,-,N/A,,Partly Cloudy,10,2011-11-15 05:54:00
10:54 PM,51.1,50.0,96,30.02,6.0,NNE,4.6,-,N/A,,Partly Cloudy,30,2011-11-15 06:54:00
11:54 PM,51.1,50.0,96,30.02,6.0,NNE,5.8,-,N/A,,Clear,20,2011-11-15 07:54:00